Find Starlink 5675

NORAD ID: 55340 Int'l Des: 2023-013 Owner: SPXS Country: US Constellation: starlink operational
LEOCIRCULAR

当前视图

正在加载3D地球...

About Starlink 5675

Starlink 5675 (NORAD 55340) is a starlink constellation satellite (v1.5) launched Jan 26, 2023 by SPXS of US. It operates in LEO, CIRCULAR orbit with a mass of 305.00 kg.

关于 Starlink 5675

正在加载描述...

即将过境

Passes for default location (London). Set your location on the main map for personalized predictions.

高度历史

Loading altitude history...

两行轨道根数

1 55340U 23013K 26169.49890166 -.00000082 00000-0 65372-5 0 9992
2 55340 43.0035 93.8567 0000944 268.8565 91.2179 15.27578266187092
Epoch: Jun 18, 2026 • Age: 10 hours

当前状态

高度 484.9 km
速度 7.63 km/s
星下点 34.47°N, 92.98°W
发射日期 Jan 26, 2023
运行时间 3.3 years
类型 internet

技术详情

分类 Payload
质量 305.00 kg
干质量 290.00 kg
总质量 305.00 kg
长度 0.20 m
直径 2.80 m
跨度 9.00 m
形状 Box + pan
制造商 SPXS
平台类型 Starlink
阶段状态 In Orbit
所有者/国家 SPXS/US

Most Searched